Photometre #843[NE_1.6_Dp] Camborne_MO AOT

File : 20220920_843.hum

20/09/2022,07:00:02,TEMP=11.8,BA=5.68,STAT.A,ExtBa=12.20
20/09/2022,07:04:04,TEMP=12.2,BA=5.64,STAT.A,ExtBa=12.20
20/09/2022,07:08:23,TEMP=12.4,BA=5.64,STAT.D,ExtBa=12.20
20/09/2022,07:10:23,TEMP=12.9,BA=5.68,STAT.A,ExtBa=12.10
20/09/2022,07:14:23,TEMP=12.8,BA=5.68,STAT.A,ExtBa=12.20
20/09/2022,07:21:08,TEMP=12.8,BA=5.68,STAT.A,ExtBa=12.20
20/09/2022,07:29:29,TEMP=13.0,BA=5.68,STAT.A,ExtBa=12.20
20/09/2022,07:40:04,TEMP=13.3,BA=5.64,STAT.B,ExtBa=12.20
20/09/2022,07:45:08,TEMP=13.5,BA=5.64,STAT.A,ExtBa=12.20
20/09/2022,07:50:50,TEMP=13.7,BA=5.68,STAT.A,ExtBa=12.20
20/09/2022,07:56:23,TEMP=13.9,BA=5.68,STAT.D,ExtBa=12.20
20/09/2022,07:58:24,TEMP=14.4,BA=5.68,STAT.A,ExtBa=12.10
20/09/2022,08:04:50,TEMP=14.3,BA=5.64,STAT.A,ExtBa=12.20
20/09/2022,08:13:06,TEMP=14.6,BA=5.68,STAT.C,ExtBa=12.20
20/09/2022,08:23:01,TEMP=15.1,BA=5.68,STAT.A,ExtBa=12.20
20/09/2022,08:34:48,TEMP=15.8,BA=5.68,STAT.A,ExtBa=12.20
20/09/2022,08:48:24,TEMP=16.6,BA=5.68,STAT.D,ExtBa=12.20
20/09/2022,08:50:24,TEMP=17.2,BA=5.68,STAT.A,ExtBa=12.10
20/09/2022,09:04:24,TEMP=17.6,BA=5.68,STAT.D,ExtBa=12.20
20/09/2022,09:07:00,TEMP=18.0,BA=5.68,STAT.A,ExtBa=12.10
20/09/2022,09:15:32,TEMP=18.2,BA=5.64,STAT.F,ExtBa=12.20
20/09/2022,09:28:24,TEMP=18.6,BA=5.68,STAT.D,ExtBa=12.20
20/09/2022,09:30:31,TEMP=19.0,BA=5.68,STAT.D,ExtBa=12.20
20/09/2022,09:44:24,TEMP=19.0,BA=5.68,STAT.D,ExtBa=12.20
20/09/2022,09:46:22,TEMP=19.5,BA=5.68,STAT.D,ExtBa=12.20
20/09/2022,10:00:24,TEMP=19.3,BA=5.68,STAT.D,ExtBa=12.20
20/09/2022,10:02:23,TEMP=19.7,BA=5.68,STAT.D,ExtBa=12.10
20/09/2022,10:15:33,TEMP=19.7,BA=5.68,STAT.F,ExtBa=12.20
20/09/2022,10:25:40,TEMP=20.7,BA=5.64,STAT.b=17.0
20/09/2022,10:30:48,TEMP=20.2,BA=5.68,STAT.D,ExtBa=12.10
20/09/2022,10:36:24,TEMP=20.3,BA=5.68,STAT.D,ExtBa=12.10
20/09/2022,10:40:24,TEMP=20.7,BA=5.68,STAT.D,ExtBa=12.10
20/09/2022,10:44:24,TEMP=20.7,BA=5.68,STAT.D,ExtBa=12.10
20/09/2022,10:46:22,TEMP=21.1,BA=5.68,STAT.D,ExtBa=12.10
20/09/2022,10:52:24,TEMP=20.7,BA=5.68,STAT.D,ExtBa=12.10
20/09/2022,10:56:24,TEMP=20.6,BA=5.68,STAT.D,ExtBa=12.10
20/09/2022,11:00:24,TEMP=20.6,BA=5.68,STAT.D,ExtBa=12.10
20/09/2022,11:02:35,TEMP=20.9,BA=5.68,STAT.D,ExtBa=12.10
20/09/2022,11:08:24,TEMP=21.3,BA=5.68,STAT.D,ExtBa=12.10
20/09/2022,11:12:24,TEMP=22.0,BA=5.64,STAT.D,ExtBa=12.10
20/09/2022,11:15:33,TEMP=22.4,BA=5.64,STAT.F,ExtBa=12.10
20/09/2022,11:40:29,TEMP=22.8,BA=5.64,STAT.D,ExtBa=12.10
20/09/2022,11:44:24,TEMP=22.4,BA=5.64,STAT.D,ExtBa=12.10
20/09/2022,11:46:23,TEMP=22.8,BA=5.64,STAT.D,ExtBa=12.10
20/09/2022,11:52:24,TEMP=22.5,BA=5.68,STAT.D,ExtBa=12.10
20/09/2022,11:56:24,TEMP=22.3,BA=5.68,STAT.D,ExtBa=12.10
20/09/2022,12:00:24,TEMP=22.2,BA=5.68,STAT.D,ExtBa=12.10
20/09/2022,12:02:23,TEMP=22.5,BA=5.68,STAT.D,ExtBa=12.10
20/09/2022,12:08:26,TEMP=22.0,BA=5.68,STAT.D,ExtBa=12.10
20/09/2022,12:12:24,TEMP=21.9,BA=5.68,STAT.D,ExtBa=12.10
20/09/2022,12:15:33,TEMP=21.9,BA=5.68,STAT.F,ExtBa=12.10
20/09/2022,12:28:24,TEMP=20.7,BA=5.68,STAT.D,ExtBa=12.10
20/09/2022,12:30:31,TEMP=21.2,BA=5.68,STAT.D,ExtBa=12.10
20/09/2022,12:44:24,TEMP=21.0,BA=5.68,STAT.D,ExtBa=12.10
20/09/2022,12:46:15,TEMP=21.4,BA=5.68,STAT.D,ExtBa=12.10
20/09/2022,12:52:41,TEMP=21.1,BA=5.64,STAT.D,ExtBa=12.10
20/09/2022,12:56:24,TEMP=21.1,BA=5.64,STAT.D,ExtBa=12.10
20/09/2022,13:00:24,TEMP=21.2,BA=5.68,STAT.D,ExtBa=12.10
20/09/2022,13:02:21,TEMP=21.5,BA=5.68,STAT.D,ExtBa=12.10
20/09/2022,13:08:24,TEMP=21.2,BA=5.68,STAT.D,ExtBa=12.10
20/09/2022,13:12:24,TEMP=21.3,BA=5.64,STAT.D,ExtBa=12.10
20/09/2022,13:15:33,TEMP=21.4,BA=5.64,STAT.F,ExtBa=12.10
20/09/2022,13:40:09,TEMP=22.6,BA=5.64,STAT.D,ExtBa=12.10
20/09/2022,13:44:24,TEMP=21.7,BA=5.64,STAT.D,ExtBa=12.10
20/09/2022,13:46:21,TEMP=21.7,BA=5.64,STAT.D,ExtBa=12.10
20/09/2022,13:52:24,TEMP=20.4,BA=5.68,STAT.D,ExtBa=12.10
20/09/2022,14:00:31,TEMP=19.8,BA=5.68,STAT.D,ExtBa=12.10
20/09/2022,14:04:24,TEMP=19.9,BA=5.68,STAT.D,ExtBa=12.10
20/09/2022,14:08:24,TEMP=20.0,BA=5.68,STAT.D,ExtBa=12.10
20/09/2022,14:12:24,TEMP=20.1,BA=5.68,STAT.D,ExtBa=12.10
20/09/2022,14:15:33,TEMP=20.4,BA=5.68,STAT.F,ExtBa=12.10
20/09/2022,14:40:37,TEMP=21.6,BA=5.64,STAT.D,ExtBa=12.10
20/09/2022,14:44:24,TEMP=21.2,BA=5.64,STAT.D,ExtBa=12.10
20/09/2022,14:46:22,TEMP=21.5,BA=5.64,STAT.D,ExtBa=12.10
20/09/2022,14:52:49,TEMP=20.8,BA=5.64,STAT.D,ExtBa=12.10
20/09/2022,14:56:24,TEMP=20.7,BA=5.64,STAT.D,ExtBa=12.10
20/09/2022,15:00:24,TEMP=20.7,BA=5.68,STAT.D,ExtBa=12.10
20/09/2022,15:02:23,TEMP=20.9,BA=5.68,STAT.D,ExtBa=12.10
20/09/2022,15:08:24,TEMP=20.4,BA=5.68,STAT.D,ExtBa=12.10
20/09/2022,15:12:24,TEMP=20.4,BA=5.64,STAT.D,ExtBa=12.10
20/09/2022,15:15:34,TEMP=20.5,BA=5.64,STAT.F,ExtBa=12.10
20/09/2022,15:40:10,TEMP=21.4,BA=5.64,STAT.A,ExtBa=12.00
20/09/2022,15:43:25,TEMP=21.0,BA=5.64,STAT.A,ExtBa=12.10
20/09/2022,15:48:24,TEMP=20.7,BA=5.64,STAT.D,ExtBa=12.10
20/09/2022,15:52:24,TEMP=20.7,BA=5.68,STAT.D,ExtBa=12.10
20/09/2022,15:56:16,TEMP=20.5,BA=5.68,STAT.A,ExtBa=12.10
20/09/2022,16:00:24,TEMP=20.4,BA=5.68,STAT.D,ExtBa=12.10
20/09/2022,16:04:23,TEMP=20.4,BA=5.68,STAT.D,ExtBa=12.10
20/09/2022,16:08:04,TEMP=20.5,BA=5.68,STAT.A,ExtBa=12.10
20/09/2022,16:12:23,TEMP=20.4,BA=5.68,STAT.D,ExtBa=12.10
20/09/2022,16:16:25,TEMP=20.4,BA=5.68,STAT.D,ExtBa=12.00
20/09/2022,16:18:24,TEMP=20.7,BA=5.68,STAT.C,ExtBa=12.10
20/09/2022,16:44:10,TEMP=20.7,BA=5.64,STAT.A,ExtBa=12.00
20/09/2022,16:47:25,TEMP=20.3,BA=5.64,STAT.A,ExtBa=12.00
20/09/2022,16:49:39,TEMP=20.4,BA=5.64,STAT.A,ExtBa=12.00
20/09/2022,16:51:54,TEMP=20.4,BA=5.64,STAT.A,ExtBa=12.00
20/09/2022,16:54:02,TEMP=20.3,BA=5.64,STAT.B,ExtBa=12.00
20/09/2022,17:02:47,TEMP=20.1,BA=5.64,STAT.A,ExtBa=12.00
20/09/2022,17:08:23,TEMP=19.4,BA=5.64,STAT.D,ExtBa=12.10
20/09/2022,17:10:33,TEMP=19.7,BA=5.64,STAT.A,ExtBa=12.00
20/09/2022,17:22:17,TEMP=18.9,BA=5.64,STAT.A,ExtBa=12.00
20/09/2022,17:27:00,TEMP=18.5,BA=5.64,STAT.A,ExtBa=12.10
20/09/2022,17:31:00,TEMP=18.3,BA=5.68,STAT.A,ExtBa=12.10